CAPE
931 1433 2266 2647 1955 705 104 18 43 26 95 111 429 516 237 628 9 0 0 433 444 685 1148 1534 1720 1666 1425 1427 928 1355 911 1254 825 813 806 982 966 1090 924 1018 1200 1319 539 818 1516 1213 965 1073 1386
2166 2514 2878 3050 1285 55 62 54 54 26 51 179 706 711 0 0 0 0 5 314 299 145 354 915 1635 1565 1571 1470 1561 1494 1472 1469 1162 1285 1221 1141 999 1009 1322 1312 1367 1309 1097 530 1571 1426 1124 866 1090
2498 3137 2789 2282 195 20 62 6 18 17 22 188 333 804 50 0 0 0 20 287 65 359 595 933 1398 1613 1395 1612 1741 1630 1519 1213 1211 1346 1057 1013 1053 1113 1132 1017 1337 1189 1280 1149 839 1049 1410 1325 1289
2838 3217 2724 477 84 65 139 75 20 80 0 1 405 600 0 0 0 0 39 113 187 908 515 1292 1248 1701 1578 1184 973 1119 1152 1358 1267 1168 1078 1259 1412 1446 1271 1380 1295 1207 1192 1186 824 947 792 948 1348
2162 2271 380 112 47 170 60 139 32 5 24 115 490 88 6 35 0 8 28 61 571 902 1214 2023 1598 1516 1886 1770 1841 1948 1564 1247 1190 1471 1626 1002 1233 1195 1384 1305 1205 1111 1128 1282 1153 1093 918 932 684
1266 1142 37 21 193 165 288 205 19 118 1 208 412 298 385 8 0 36 67 11 893 777 622 1245 1826 1967 1487 1525 1850 1644 1222 1266 1373 1323 1512 1560 1226 1344 755 1423 1076 1239 833 988 1145 1076 825 868 913
1018 345 131 77 86 154 334 113 318 211 27 62 263 379 188 0 0 52 126 91 186 200 821 1384 1345 1470 1786 1765 1801 1542 1165 1775 1874 1558 1383 1274 1036 1015 1104 1207 1159 500 1184 1289 1039 1149 986 734 609
478 70 123 129 77 214 316 237 122 84 26 175 446 225 134 0 0 45 42 77 138 258 518 1195 1458 1520 186 972 1831 1582 1912 1453 713 864 1165 1137 1195 1084 543 132 136 234 254 467 903 1155 824 471 400
29 46 9 122 199 384 468 400 354 151 317 389 464 301 210 90 132 212 63 46 238 426 191 646 1025 774 61 1154 1856 1265 829 1003 1101 1149 1620 1137 1102 613 674 555 161 162 120 196 462 763 846 775 763
9 29 9 37 127 314 466 528 621 428 669 573 296 284 225 181 265 392 306 119 282 407 332 206 603 291 444 450 475 663 757 1390 1377 992 397 251 55 562 708 489 55 50 207 254 322 460 572 744 372
0 18 57 9 37 154 420 435 615 733 644 629 406 420 184 217 281 333 478 213 356 169 361 114 401 137 697 1226 1239 1494 903 913 903 1335 1119 48 950 641 12 327 420 113 98 416 416 439 480 522 467
11 5 38 105 203 87 118 456 367 336 407 679 624 379 237 259 290 252 399 345 427 469 381 209 455 476 856 812 274 534 260 511 657 551 736 736 558 104 145 653 664 460 521 582 533 357 90 33 433
34 14 26 124 294 137 213 364 474 442 544 772 712 339 226 197 210 220 283 277 463 437 483 473 852 551 725 495 247 622 460 334 688 898 948 887 786 703 660 379 739 890 938 838 733 479 271 48 4
6 0 30 24 132 116 328 415 668 503 671 739 573 292 177 132 104 123 164 201 365 319 332 423 785 1121 857 832 982 710 618 696 717 1072 598 1125 1457 975 980 737 1149 1168 875 1033 866 643 913 483 82
0 0 28 0 42 330 423 23 163 324 706 726 572 388 140 75 35 38 19 59 108 128 245 322 441 1016 1275 1179 1002 887 935 220 795 831 1265 1484 1495 1193 1117 1322 630 794 618 826 587 974 527 476 343
0 0 7 28 185 174 188 0 0 183 700 817 676 495 259 103 22 1 6 33 29 14 147 258 55 754 1147 1186 1264 913 705 548 592 732 1333 1174 785 1205 1233 1532 965 364 939 932 700 799 424 494 243
0 1 51 124 138 226 180 6 96 233 647 904 814 550 346 97 28 74 82 203 275 382 200 87 35 254 850 1207 1082 1210 1231 877 745 1095 938 894 57 438 1425 1152 961 1091 1031 1026 684 611 506 221 107
37 1 13 43 74 0 18 406 651 731 738 931 937 711 520 122 113 220 290 539 720 1030 761 82 87 355 677 1041 996 1400 1168 1002 1092 1114 1522 1256 1304 1827 1604 1331 896 448 628 688 656 532 526 367 365
0 26 47 25 12 0 0 105 426 744 644 816 919 886 644 509 258 362 433 629 570 918 1041 671 530 603 982 1139 1023 1091 981 1045 1101 1316 1075 800 1801 1794 1638 1433 1232 1017 447 121 478 50 0 45 125
1 1 1 127 62 86 0 0 589 427 602 529 765 905 810 617 532 600 575 667 644 741 1358 1048 709 1139 1078 1264 1487 1268 1077 1315 1835 1067 1423 1917 1936 1599 1367 1362 935 601 47 18 16 55 77 46 168
5 24 37 34 5 63 84 0 0 52 6 157 454 735 925 795 562 597 750 711 864 947 1112 1082 1194 1658 1199 1500 1414 1507 1647 1801 1778 1512 1670 1583 1268 1478 1249 1498 761 14 21 0 156 47 42 0 1
11 24 0 1 28 93 11 7 117 10 0 182 33 527 844 951 708 648 732 721 728 1027 1554 1619 1474 2006 1827 1869 1851 1607 1510 1532 1380 1119 1394 1771 1842 1503 1411 842 18 49 100 38 20 44 0 0 0
0 0 5 3 7 48 0 0 223 35 0 2 0 89 735 963 855 693 760 727 621 822 1049 2176 1929 2087 2190 2085 2068 1835 1760 1603 1541 1812 1642 1901 1755 1733 533 39 123 51 164 149 14 64 0 0 4
0 0 0 0 12 7 2 0 123 215 66 2 77 4 225 836 731 689 662 763 647 910 1125 1499 2428 2287 2336 2530 2116 1753 1975 1844 1477 1725 1725 1483 1626 1428 79 173 297 489 184 93 144 112 62 0 28
0 0 0 0 4 0 0 0 185 73 3 1 72 232 552 624 749 730 699 723 522 620 1054 1670 2342 2790 2446 3053 2558 2127 2112 1787 1997 1729 1533 1604 1186 281 335 402 495 569 197 181 168 312 88 13 11
0 0 0 0 4 1 25 12 219 41 23 24 68 29 103 383 687 815 863 1035 874 726 1123 1623 2309 2776 3008 2758 2739 2455 2448 2216 2112 1771 195 938 807 721 700 553 454 490 163 105 180 270 72 0 0
0 0 0 0 0 0 0 53 22 0 0 38 98 158 145 254 456 712 832 978 1238 1143 1390 1846 2336 2742 2871 2785 2719 2873 2564 2486 1944 2184 1124 1099 933 945 681 529 397 423 302 217 118 343 83 0 0
0 0 0 0 0 0 0 154 1 2 0 73 233 123 23 30 211 676 859 1011 1681 1595 1630 1905 2576 2906 2828 2660 3023 2973 2859 2271 2230 2026 1407 551 1344 1115 933 604 473 328 470 448 151 58 0 0 0
0 0 0 0 0 0 0 39 23 6 5 0 20 271 94 29 14 678 818 1175 1759 1802 1779 1923 2562 2922 2621 2986 2903 3039 2941 2414 2186 2008 674 1049 1559 1327 1022 782 584 576 282 120 10 0 0 0 0
0 0 0 0 0 0 3 87 40 0 5 0 2 348 95 45 262 692 927 1308 1666 1954 2023 2020 2388 2676 2537 2473 2670 3030 2644 2507 2077 1975 522 1254 1525 1510 1047 942 629 286 65 0 0 0 0 0 0
CIN
-470 -374 -236 -80 -16 -9 -8 -27 -38 -35 -10 -14 -15 -11 -19 -64 -113 -0 -0 -5 -41 -36 -17 -0 -0 -0 -0 -0 -4 -0 -2 -0 -1 -5 -9 -4 -0 -0 -0 -0 -0 -0 -9 -1 -0 -0 -0 -0 -0
-268 -89 -77 -41 -20 -8 -20 -30 -23 -37 -17 -7 -4 -51 -0 -0 -0 -0 -13 -15 -52 -111 -68 -28 -0 -0 -0 -0 -0 -0 -0 -0 -0 -0 -1 -0 -0 -0 -0 -0 -0 -0 -0 -6 -0 -0 -0 -0 -0
-263 -69 -33 -27 -3 -8 -9 -1 -41 -39 -9 -1 -8 -9 -15 -0 -0 -0 -30 -20 -82 -36 -43 -52 -9 -0 -0 -0 -0 -0 -0 -0 -0 -0 -0 -0 -0 -0 -0 -0 -0 -0 -0 -0 -0 -0 -0 -0 -0
-53 -11 -10 -3 -16 -2 -1 -6 -608 -22 -0 -0 -13 -24 -0 -0 -0 -0 -67 -24 -14 -13 -73 -21 -31 -0 -7 -19 -16 -6 -3 -0 -0 -0 -0 -0 -0 -0 -0 -0 -0 -0 -0 -0 -0 -0 -1 -0 -0
-28 -8 -17 -12 -32 -1 -12 -4 -63 -12 -33 -35 -17 -71 -34 -105 -0 -157 -81 -35 -4 -44 -47 -3 -15 -18 -0 -0 -0 -0 -0 -0 -0 -0 -0 -0 -0 -1 -0 -0 -0 -0 -0 -0 -0 -0 -1 -0 -12
-26 -19 -51 -88 -2 -2 -2 -4 -399 -20 -44 -32 -31 -46 -37 -128 -0 -153 -85 -122 -16 -62 -74 -44 -1 -0 -8 -3 -0 -0 -0 -0 -0 -0 -1 -0 -1 -0 -8 -0 -1 -0 -0 -0 -0 -0 -5 -2 -3
-31 -24 -4 -62 -15 -4 -3 -12 -4 -4 -50 -36 -42 -45 -76 -9 -0 -155 -64 -63 -18 -64 -48 -21 -17 -10 -1 -0 -0 -0 -4 -0 -0 -0 -2 -5 -11 -8 -6 -2 -0 -11 -0 -0 -0 -0 -0 -7 -19
-4 -33 -13 -20 -20 -6 -4 -3 -14 -28 -44 -5 -17 -62 -92 -50 -15 -149 -150 -96 -41 -34 -52 -11 -10 -7 -124 -34 -0 -0 -0 -3 -32 -24 -6 -5 -7 -7 -19 -36 -37 -23 -17 -5 -1 -0 -3 -22 -32
-50 -35 -4 -17 -7 -12 -2 -7 -35 -44 -7 -7 -5 -72 -89 -140 -102 -30 -143 -151 -13 -13 -61 -9 -11 -33 -152 -23 -10 -29 -46 -31 -23 -19 -6 -8 -2 -13 -14 -13 -34 -30 -41 -27 -3 -0 -2 -8 -17
-83 -19 -1 -82 -16 -5 -1 -2 -4 -14 -22 -10 -32 -47 -88 -94 -48 -2 -16 -97 -17 -3 -18 -26 -3 -47 -6 -22 -87 -60 -48 -32 -26 -16 -32 -43 -74 -17 -4 -15 -39 -59 -40 -31 -21 -16 -8 -0 -15
-0 -1 -71 -94 -33 -3 -2 -1 -1 -10 -3 -13 -51 -77 -106 -68 -32 -5 -2 -34 -12 -45 -3 -57 -8 -53 -27 -15 -33 -18 -17 -5 -9 -12 -29 -85 -29 -30 -64 -18 -16 -59 -59 -24 -20 -17 -7 -2 -10
-45 -5 -56 -24 -11 -5 -4 -3 -15 -19 -14 -22 -59 -84 -103 -55 -19 -6 -0 -2 -7 -5 -7 -23 -3 -6 -21 -33 -37 -9 -41 -14 -16 -24 -17 -26 -25 -55 -43 -7 -6 -22 -26 -21 -22 -23 -41 -57 -29
-101 -4 -72 -11 -8 -3 -8 -5 -19 -30 -30 -45 -66 -101 -104 -59 -17 -3 -1 -2 -7 -9 -0 -8 -14 -19 -6 -6 -31 -7 -26 -5 -19 -9 -39 -17 -29 -17 -12 -40 -7 -10 -7 -17 -21 -31 -40 -84 -81
-87 -0 -34 -53 -5 -12 -3 -10 -9 -39 -48 -67 -105 -126 -125 -80 -36 -6 -4 -4 -6 -34 -24 -3 -6 -31 -21 -18 -18 -13 -5 -12 -17 -33 -30 -32 -2 -22 -14 -17 -5 -7 -9 -16 -6 -6 -5 -32 -70
-0 -0 -39 -0 -10 -9 -37 -88 -131 -114 -58 -83 -99 -97 -129 -109 -79 -45 -56 -26 -33 -54 -32 -22 -19 -26 -22 -19 -27 -22 -5 -10 -3 -21 -19 -11 -3 -14 -12 -8 -20 -12 -41 -12 -16 -13 -13 -17 -22
-11 -0 -13 -50 -3 -8 -51 -0 -0 -174 -44 -71 -92 -82 -93 -124 -131 -23 -98 -37 -78 -101 -47 -25 -106 -12 -30 -19 -14 -24 -18 -4 -1 -3 -6 -34 -28 -24 -12 -2 -9 -51 -7 -9 -15 -15 -24 -17 -11
-0 -2 -18 -29 -7 -11 -32 -40 -76 -115 -49 -68 -83 -88 -106 -144 -167 -133 -90 -32 -35 -18 -36 -50 -89 -15 -35 -14 -25 -17 -2 -7 -9 -8 -17 -31 -48 -62 -5 -12 -19 -3 -5 -11 -23 -18 -17 -25 -30
-18 -25 -62 -13 -18 -0 -13 -73 -98 -55 -15 -52 -68 -100 -107 -157 -158 -145 -78 -11 -11 -11 -19 -56 -57 -16 -44 -25 -32 -6 -4 -3 -5 -11 -4 -11 -28 -4 -10 -3 -11 -26 -10 -10 -11 -8 -11 -18 -22
-0 -77 -85 -75 -28 -0 -0 -8 -8 -15 -13 -24 -58 -88 -107 -113 -136 -113 -78 -27 -45 -26 -32 -38 -37 -28 -28 -34 -38 -22 -10 -7 -5 -45 -38 -65 -0 -1 -7 -6 -9 -11 -3 -11 -16 -26 -0 -14 -17
-4 -1 -2 -8 -43 -95 -0 -0 -17 -12 -11 -25 -31 -57 -91 -93 -95 -85 -80 -44 -80 -49 -47 -59 -48 -29 -28 -19 -10 -10 -7 -11 -12 -31 -19 -10 -6 -12 -14 -8 -2 -14 -19 -36 -64 -49 -18 -56 -26
-5 -4 -7 -2 -73 -87 -7 -0 -0 -40 -32 -156 -14 -28 -67 -83 -105 -95 -88 -63 -22 -65 -58 -65 -54 -30 -40 -14 -4 -3 -4 -7 -10 -5 -15 -27 -35 -14 -17 -2 -8 -10 -35 -0 -12 -77 -74 -0 -4
-5 -4 -0 -1 -7 -5 -3 -1 -14 -138 -0 -101 -212 -4 -13 -72 -82 -78 -80 -80 -41 -8 -35 -46 -61 -42 -41 -16 -3 -2 -7 -10 -18 -23 -30 -17 -6 -9 -8 -8 -112 -70 -52 -85 -121 -99 -0 -0 -0
-0 -0 -2 -2 -6 -9 -0 -0 -79 -307 -9 -375 -14 -237 -5 -37 -47 -63 -53 -59 -50 -23 -22 -13 -40 -44 -35 -28 -16 -4 -6 -14 -13 -8 -25 -9 -11 -4 -24 -106 -75 -77 -33 -36 -162 -73 -1 -0 -57
-0 -0 -0 -0 -6 -3 -21 -0 -10 -191 -136 -127 -180 -52 -373 -23 -42 -55 -44 -25 -46 -28 -39 -37 -34 -47 -36 -27 -17 -21 -5 -10 -11 -8 -14 -19 -13 -5 -97 -74 -46 -11 -43 -50 -26 -44 -70 -0 -132
-0 -0 -0 -0 -4 -0 -0 -3 -116 -260 -96 -55 -101 -163 -12 -21 -50 -47 -46 -14 -65 -68 -60 -57 -47 -43 -49 -8 -18 -17 -14 -13 -2 -14 -20 -17 -17 -68 -48 -44 -17 -7 -35 -20 -18 -9 -71 -134 -40
-0 -0 -0 -0 -3 -2 -14 -12 -102 -143 -164 -91 -63 -29 -6 -5 -11 -37 -39 -6 -48 -92 -97 -76 -75 -51 -44 -34 -17 -19 -8 -11 -6 -8 -112 -52 -17 -58 -44 -21 -11 -5 -35 -37 -16 -20 -47 -0 -0
-0 -0 -0 -0 -0 -0 -0 -150 -173 -18 -0 -41 -5 -16 -33 -12 -3 -11 -12 -16 -35 -89 -115 -102 -97 -69 -54 -34 -24 -10 -14 -3 -9 -3 -48 -19 -48 -44 -35 -24 -11 -4 -17 -28 -31 -7 -46 -0 -0
-0 -0 -0 -0 -0 -0 -0 -48 -72 -133 -0 -58 -9 -40 -28 -195 -53 -8 -3 -6 -23 -82 -131 -119 -84 -70 -62 -58 -26 -18 -11 -15 -3 -8 -7 -43 -17 -27 -13 -2 -8 -14 -12 -6 -14 -31 -0 -0 -0
-0 -0 -0 -0 -0 -0 -0 -66 -130 -45 -28 -0 -107 -88 -120 -52 -41 -8 -11 -6 -32 -89 -131 -129 -84 -51 -61 -36 -38 -18 -7 -6 -13 -15 -64 -34 -15 -12 -6 -17 -8 -8 -23 -45 -23 -0 -0 -0 -0
-0 -0 -0 -0 -0 -0 -2 -22 -67 -0 -196 -0 -17 -7 -40 -47 -135 -13 -10 -23 -57 -95 -119 -113 -113 -61 -63 -62 -42 -14 -15 -13 -22 -10 -89 -19 -5 -3 -17 -12 -17 -62 -57 -0 -0 -0 -0 -0 -0
Wind_Speed
22 18 15 12 17 21 29 32 28 25 23 18 23 18 16 16 5 17 31 28 29 28 29 29 29 19 14 22 29 29 29 28 28 22 10 15 13 11 19 9 18 22 22 22 22 22 23 23 23
18 14 13 15 18 31 29 26 27 24 22 23 19 21 18 19 23 30 28 27 29 29 28 28 27 23 21 20 21 20 25 24 20 13 17 19 22 18 15 15 15 17 21 22 22 22 22 23 23
16 13 13 17 30 27 27 26 25 24 21 20 19 17 21 26 26 24 29 28 28 29 26 27 27 26 24 23 20 18 14 11 11 18 16 22 21 22 21 19 18 19 20 21 21 21 21 21 22
15 17 13 24 30 30 27 24 11 26 24 21 22 19 22 20 22 27 28 27 28 24 25 27 26 24 23 23 23 25 25 25 23 19 21 15 15 18 19 20 21 21 21 21 21 20 20 20 20
12 12 20 26 30 29 24 19 26 26 23 22 22 23 21 17 23 25 25 26 25 24 25 24 25 24 24 25 25 25 25 24 24 14 22 21 16 14 17 20 18 20 19 19 19 19 18 19 18
4 16 27 21 31 29 27 17 21 26 26 24 23 22 20 18 21 21 23 23 22 21 23 23 23 23 23 24 24 24 24 24 21 20 20 19 17 16 18 18 18 18 18 18 17 17 17 17 16
10 9 30 29 29 29 20 26 27 25 23 23 23 22 21 21 19 20 20 22 20 22 20 21 22 22 23 22 22 21 21 20 20 20 19 18 17 18 18 17 17 16 16 15 15 15 15 15 14
10 22 24 27 28 28 25 24 27 25 23 23 20 18 20 22 21 20 19 18 20 20 19 20 20 22 22 22 21 21 20 19 19 19 18 17 17 16 17 16 16 15 14 13 13 13 13 12 12
12 16 23 28 27 25 21 26 26 26 23 23 18 22 25 25 24 23 20 17 18 18 20 20 20 20 21 20 21 20 20 20 19 18 18 17 16 15 15 15 15 14 14 14 12 10 11 11 12
18 20 23 18 26 25 24 25 23 23 24 23 25 26 25 25 24 23 20 17 18 14 20 19 19 18 20 18 19 19 19 19 17 17 16 16 15 14 12 14 14 14 13 12 12 10 10 11 12
17 21 22 22 10 24 21 25 20 19 22 22 23 23 23 24 22 21 20 17 18 15 16 16 16 15 15 13 16 17 17 16 16 16 15 15 15 15 12 13 13 12 12 11 10 10 7 11 12
17 15 18 20 15 19 23 19 25 24 21 23 22 23 23 23 22 20 19 16 13 17 12 16 12 12 14 18 15 12 15 14 12 13 13 14 14 13 12 18 12 12 12 12 12 9 9 6 18
17 14 17 17 17 19 18 19 22 23 23 24 23 23 22 22 22 20 17 15 13 15 10 11 7 4 10 9 8 8 14 11 12 11 15 10 11 11 13 11 13 12 12 9 9 8 6 6 4
11 14 14 14 17 16 17 19 12 20 21 22 22 22 22 22 22 21 20 17 15 16 11 8 6 5 5 9 17 17 14 11 10 10 9 12 10 10 9 10 12 14 13 7 7 6 6 6 5
12 13 13 13 12 14 18 17 12 12 18 20 20 21 21 21 21 20 19 17 17 18 12 10 8 7 7 5 9 18 19 17 10 9 10 11 17 18 22 22 22 22 10 7 13 10 7 4 7
12 14 10 7 6 10 11 10 19 17 18 18 19 19 20 20 21 21 20 18 17 15 11 11 14 10 10 7 6 9 12 22 13 14 13 17 22 22 16 9 16 19 19 20 23 25 21 9 13
15 8 8 9 13 11 8 10 14 19 20 17 17 19 19 19 21 21 22 21 19 19 14 15 15 13 10 7 6 12 10 8 7 9 13 15 14 12 11 7 20 23 23 23 24 25 24 23 11
17 23 18 16 12 12 7 10 12 18 20 17 16 17 19 19 21 22 22 23 21 20 19 22 20 17 13 11 12 11 11 8 8 16 19 8 12 14 15 20 22 22 22 21 25 23 23 23 11
30 2 9 10 12 19 7 18 9 14 14 16 16 17 18 19 20 21 22 22 22 21 22 23 21 19 12 10 11 12 11 10 11 17 22 15 12 14 18 21 23 23 24 26 24 23 23 23 16
30 29 28 20 17 25 11 12 8 7 15 16 17 17 17 20 21 21 21 21 20 20 21 21 22 21 20 19 16 16 17 10 12 11 11 13 13 19 20 22 22 23 23 23 24 23 22 20 22
28 29 29 24 14 8 20 11 7 6 18 28 13 18 18 20 22 22 22 22 21 20 18 19 20 19 19 20 19 19 18 10 11 11 12 14 17 20 20 20 22 22 15 23 23 23 21 20 20
20 27 26 34 29 13 30 35 10 12 9 17 29 16 20 19 20 21 21 20 19 17 18 16 17 16 17 19 16 15 13 10 7 9 14 16 16 18 17 19 21 21 22 22 22 23 22 21 20
25 32 26 34 27 36 32 18 26 8 8 17 41 31 18 19 20 20 20 19 19 17 15 14 15 13 13 15 16 10 10 9 8 10 13 14 14 15 17 18 19 20 21 21 22 22 23 22 23
26 21 22 32 27 27 33 28 16 5 4 3 4 32 31 18 18 19 19 20 18 17 16 15 13 13 12 10 11 8 8 8 7 9 13 13 13 15 17 18 18 19 20 21 21 22 22 24 24
4 4 4 6 8 14 17 19 21 10 10 14 7 12 15 16 16 19 18 19 18 18 17 14 14 13 12 10 8 7 6 8 9 11 10 11 13 14 16 17 19 19 19 20 22 21 23 25 25
7 2 4 10 11 26 16 6 13 9 21 12 9 8 10 9 13 18 17 16 19 19 18 16 13 12 13 13 10 9 7 7 8 10 17 20 13 14 15 17 18 19 20 21 22 21 23 24 26
19 12 27 35 35 34 30 20 23 28 13 27 5 13 12 6 12 16 17 16 17 16 16 15 13 14 15 14 12 10 8 9 9 11 14 13 12 12 14 16 17 18 19 20 23 21 22 24 25
4 30 7 4 23 33 34 22 24 21 14 25 7 11 14 14 26 18 19 16 15 13 14 14 15 15 16 16 13 11 9 8 8 9 9 10 12 12 14 16 18 18 19 20 23 22 23 24 24
6 3 24 29 29 28 30 14 12 9 7 15 22 11 9 12 18 15 18 15 16 14 14 14 15 15 16 14 14 12 8 6 6 6 7 8 9 11 13 15 16 19 21 22 23 23 23 23 23
20 11 6 14 10 31 33 28 14 16 11 8 19 11 11 14 18 11 15 18 15 14 14 15 14 15 16 13 13 8 6 4 3 4 4 5 7 9 11 13 15 19 21 21 23 22 23 23 23
Wind_Direction
125 129 138 135 107 93 54 48 66 62 36 14 34 27 10 9 293 51 114 95 99 99 103 104 104 76 62 80 103 118 111 112 115 86 19 40 32 19 154 178 150 95 86 100 91 91 76 79 72
143 142 133 113 95 53 39 31 35 33 47 59 12 28 29 36 70 93 95 96 98 102 102 104 97 88 80 78 79 70 94 98 70 34 50 58 81 53 49 23 19 31 61 70 68 59 66 78 81
141 148 123 97 61 65 58 40 56 55 35 58 41 356 53 78 84 84 101 100 100 105 92 100 102 98 92 85 74 65 46 30 26 55 47 83 75 91 73 54 44 48 54 63 63 70 68 78 78
129 126 102 78 58 61 68 63 315 61 55 51 58 32 62 61 76 93 101 97 104 88 93 100 99 93 87 86 84 100 102 112 93 67 81 36 30 51 57 68 73 85 69 76 74 78 82 81 70
160 113 80 59 57 66 74 93 81 49 20 12 57 69 65 45 85 94 96 100 95 88 95 95 97 94 94 97 101 103 108 119 110 33 101 93 46 24 43 84 55 95 87 90 93 93 97 91 84
103 113 57 81 53 56 65 94 94 47 61 56 62 75 65 74 92 95 99 97 86 89 96 97 95 94 99 103 105 104 113 111 85 85 77 81 59 46 63 76 74 94 89 93 97 95 98 106 111
109 106 66 45 54 51 88 19 12 55 57 65 73 72 85 95 94 99 95 101 82 94 90 94 98 101 103 97 97 93 94 94 89 95 89 93 73 89 90 94 92 99 97 83 88 98 103 111 111
157 89 67 66 50 56 71 75 44 62 61 75 72 76 102 108 107 104 94 89 95 93 94 101 99 105 107 106 104 101 91 89 100 102 98 95 98 93 107 112 104 96 97 90 97 107 116 125 129
310 97 58 42 55 69 85 62 70 74 76 43 93 100 112 115 118 116 104 91 97 95 102 110 106 108 109 102 100 98 106 108 111 116 102 90 100 93 107 107 74 76 74 59 72 105 138 149 163
65 66 50 83 56 72 80 68 81 78 83 75 52 86 108 119 122 121 112 100 110 88 110 109 116 103 122 102 96 102 109 116 119 120 97 103 110 59 21 95 81 88 97 98 98 111 149 171 181
32 51 45 34 171 54 90 72 87 89 81 86 90 98 112 120 122 124 118 108 115 100 113 99 107 92 89 92 110 112 111 119 115 98 99 105 107 110 70 79 81 84 100 82 76 99 102 177 183
62 75 38 55 125 97 62 97 57 73 83 79 92 104 114 121 126 124 122 110 102 115 95 120 90 86 95 113 103 57 129 110 78 97 99 85 133 132 99 257 44 58 40 45 34 49 36 46 222
275 84 67 70 101 86 103 94 80 75 80 84 94 104 113 124 127 127 117 108 103 122 99 96 59 14 305 327 333 46 108 18 71 59 348 117 125 106 26 138 179 26 21 46 40 40 64 88 82
99 168 78 93 78 88 102 80 144 86 88 91 97 105 113 124 129 124 127 115 116 127 115 97 66 36 330 315 267 277 302 43 59 61 66 137 77 67 89 97 47 39 39 89 60 50 49 55 88
163 166 158 106 97 87 51 331 194 180 105 103 105 110 114 123 129 124 128 117 126 135 119 115 102 80 78 43 330 270 259 173 18 104 92 65 353 349 284 321 327 332 68 82 24 37 48 69 145
165 184 149 63 115 62 78 94 198 163 142 114 113 114 114 121 129 128 130 119 122 124 118 117 132 111 107 87 46 105 139 235 331 342 8 347 317 297 4 72 17 359 12 12 350 339 4 62 182
173 136 114 148 141 98 83 34 216 183 162 127 121 122 117 120 129 128 134 126 120 132 114 130 134 127 111 90 56 137 143 7 360 26 9 8 44 156 42 92 357 350 355 356 348 335 334 321 49
3 293 222 268 69 69 150 109 143 152 149 135 123 123 128 129 134 130 136 133 123 129 123 143 139 144 117 111 124 127 144 116 126 335 328 220 79 30 34 2 356 349 5 1 351 341 334 305 45
247 60 135 109 4 336 48 234 93 124 144 138 136 131 135 139 138 134 145 133 125 129 137 144 142 142 112 107 121 138 143 138 16 349 333 203 69 43 11 349 350 353 341 336 352 347 318 303 245
230 247 268 312 327 301 346 205 49 151 159 145 144 145 144 144 142 142 142 142 134 133 137 140 154 146 148 151 145 151 165 74 27 48 125 47 46 3 0 352 358 353 346 5 357 343 330 318 344
224 227 279 278 340 191 228 218 222 354 340 257 149 157 154 152 152 147 146 153 145 141 138 141 148 148 149 159 159 176 185 64 31 67 50 44 28 27 16 26 11 0 24 4 352 351 339 317 313
210 271 290 259 290 332 289 287 327 323 13 214 270 177 163 154 153 154 153 150 151 143 142 141 142 141 145 162 148 150 151 152 85 41 10 4 39 43 53 32 25 21 9 6 355 355 339 329 321
293 271 291 272 300 267 278 321 323 11 352 349 240 241 168 156 155 155 154 150 152 143 138 132 142 138 139 148 158 115 131 124 74 43 38 32 47 49 32 26 22 20 19 15 11 2 350 339 335
288 295 268 270 301 266 254 244 334 26 45 86 99 256 219 155 149 151 153 147 141 139 136 135 133 143 141 136 146 118 112 132 51 67 36 55 71 60 45 43 37 22 15 7 9 353 2 351 352
250 291 258 294 209 211 211 214 318 11 20 1 75 157 142 145 143 148 147 147 137 136 132 126 129 138 142 135 131 132 115 122 68 41 55 65 90 54 44 44 31 32 14 3 351 348 353 351 347
179 245 229 311 312 232 210 232 323 340 322 195 70 60 50 104 146 149 143 137 137 134 133 129 128 132 137 140 127 123 113 104 62 65 7 208 66 50 45 39 38 42 38 0 342 349 350 350 347
196 186 222 249 249 250 255 318 321 307 279 289 148 37 6 316 133 139 142 138 130 131 133 136 133 133 137 136 127 122 120 120 98 79 102 82 54 54 47 50 49 43 38 25 343 355 356 355 353
297 233 265 320 224 249 266 309 314 338 253 222 36 350 341 324 213 136 144 145 135 130 132 136 142 141 140 140 135 126 119 116 64 84 75 66 62 56 51 48 31 36 33 23 6 355 356 354 357
334 230 239 274 272 236 268 338 31 77 22 323 265 57 25 6 258 133 132 139 141 138 139 136 140 144 146 140 138 129 115 100 72 60 51 62 53 47 36 32 37 25 22 17 8 3 4 360 358
297 310 314 300 313 241 267 286 335 4 359 334 219 41 43 23 148 101 121 137 141 138 141 141 139 146 151 140 141 126 115 103 12 8 25 23 28 30 31 39 30 22 16 18 15 12 7 7 3